| time (UTC) | temp F | wind direction | speed MPH | gust MPH | rain 1hr in | rain 24hr in | rain mn in | humidity % | barometer mb |
| 20260510040953 | 87 | 272 | 4.0 | 9.0 | 0.00 | 0.00 | 0.00 | 12 | 1007.6 |
| 20260510040631 | 87 | 302 | 4.0 | 8.0 | 0.00 | 0.00 | 0.00 | 12 | 1007.5 |
| 20260510040314 | 88 | 279 | 3.0 | 8.0 | 0.00 | 0.00 | 0.00 | 12 | 1007.5 |
| 20260510035954 | 88 | 253 | 3.0 | 9.0 | 0.00 | 0.00 | 0.00 | 12 | 1007.4 |
| 20260510035633 | 88 | 279 | 3.0 | 9.0 | 0.00 | 0.00 | 0.00 | 12 | 1007.5 |
| 20260510035017 | 89 | 255 | 4.0 | 9.0 | 0.00 | 0.00 | 0.00 | 12 | 1007.3 |
| 20260510034353 | 89 | 263 | 3.0 | 9.0 | 0.00 | 0.00 | 0.00 | 12 | 1007.3 |
| 20260510034036 | 90 | 314 | 3.0 | 7.0 | 0.00 | 0.00 | 0.00 | 12 | 1007.2 |
| 20260510033720 | 90 | 275 | 3.0 | 7.0 | 0.00 | 0.00 | 0.00 | 11 | 1007.2 |
| 20260510033355 | 90 | 303 | 3.0 | 9.0 | 0.00 | 0.00 | 0.00 | 11 | 1007.2 |
| 20260510033031 | 90 | 265 | 3.0 | 9.0 | 0.00 | 0.00 | 0.00 | 11 | 1007.1 |
| 20260510032710 | 90 | 292 | 2.0 | 9.0 | 0.00 | 0.00 | 0.00 | 11 | 1007.1 |
| 20260510032345 | 91 | 259 | 3.0 | 9.0 | 0.00 | 0.00 | 0.00 | 11 | 1007.0 |
| 20260510032028 | 91 | 263 | 4.0 | 9.0 | 0.00 | 0.00 | 0.00 | 11 | 1007.0 |
| 20260510031713 | 91 | 249 | 5.0 | 9.0 | 0.00 | 0.00 | 0.00 | 11 | 1006.8 |
| 20260510031352 | 91 | 270 | 4.0 | 9.0 | 0.00 | 0.00 | 0.00 | 10 | 1006.8 |
| 20260510031027 | 91 | 248 | 4.0 | 10.0 | 0.00 | 0.00 | 0.00 | 10 | 1006.8 |
| 20260510030707 | 91 | 242 | 5.0 | 10.0 | 0.00 | 0.00 | 0.00 | 11 | 1006.8 |
| 20260510030347 | 91 | 275 | 5.0 | 10.0 | 0.00 | 0.00 | 0.00 | 10 | 1006.8 |
| 20260510030026 | 92 | 266 | 5.0 | 10.0 | 0.00 | 0.00 | 0.00 | 11 | 1006.7 |
| 20260510025707 | 92 | 281 | 4.0 | 10.0 | 0.00 | 0.00 | 0.00 | 10 | 1006.6 |
| 20260510025349 | 92 | 260 | 4.0 | 10.0 | 0.00 | 0.00 | 0.00 | 10 | 1006.6 |
| 20260510025033 | 92 | 261 | 5.0 | 13.0 | 0.00 | 0.00 | 0.00 | 10 | 1006.5 |
| 20260510024709 | 92 | 275 | 6.0 | 13.0 | 0.00 | 0.00 | 0.00 | 10 | 1006.3 |
| 20260510024047 | 92 | 267 | 6.0 | 13.0 | 0.00 | 0.00 | 0.00 | 10 | 1006.4 |
| 20260510023728 | 93 | 249 | 5.0 | 13.0 | 0.00 | 0.00 | 0.00 | 10 | 1006.4 |
| 20260510023406 | 93 | 256 | 4.0 | 13.0 | 0.00 | 0.00 | 0.00 | 10 | 1006.3 |
| 20260510023046 | 93 | 221 | 3.0 | 12.0 | 0.00 | 0.00 | 0.00 | 10 | 1006.3 |
| 20260510022421 | 93 | 300 | 2.0 | 7.0 | 0.00 | 0.00 | 0.00 | 10 | 1006.2 |
| 20260510022055 | 93 | 250 | 3.0 | 7.0 | 0.00 | 0.00 | 0.00 | 11 | 1006.1 |
| 20260510021740 | 94 | 245 | 3.0 | 7.0 | 0.00 | 0.00 | 0.00 | 10 | 1006.2 |
| 20260510021419 | 94 | 246 | 3.0 | 7.0 | 0.00 | 0.00 | 0.00 | 10 | 1006.1 |
| 20260510021052 | 94 | 242 | 2.0 | 7.0 | 0.00 | 0.00 | 0.00 | 10 | 1006.1 |
| 20260510020733 | 94 | 236 | 2.0 | 7.0 | 0.00 | 0.00 | 0.00 | 10 | 1006.1 |
| 20260510020419 | 95 | 187 | 2.0 | 4.0 | 0.00 | 0.00 | 0.00 | 9 | 1006.1 |
| 20260510020058 | 95 | 186 | 2.0 | 7.0 | 0.00 | 0.00 | 0.00 | 9 | 1006.1 |
| 20260510015737 | 95 | 177 | 3.0 | 7.0 | 0.00 | 0.00 | 0.00 | 9 | 1006.1 |
| 20260510014812 | 95 | 186 | 4.0 | 8.0 | 0.00 | 0.00 | 0.00 | 9 | 1006.0 |
| 20260510014455 | 95 | 214 | 3.0 | 8.0 | 0.00 | 0.00 | 0.00 | 8 | 1006.0 |
| 20260510014137 | 95 | 233 | 3.0 | 8.0 | 0.00 | 0.00 | 0.00 | 9 | 1006.0 |
| 20260510013819 | 95 | 191 | 3.0 | 8.0 | 0.00 | 0.00 | 0.00 | 9 | 1006.0 |
| 20260510013457 | 95 | 194 | 2.0 | 8.0 | 0.00 | 0.00 | 0.00 | 9 | 1006.1 |
| 20260510013140 | 94 | 194 | 2.0 | 6.0 | 0.00 | 0.00 | 0.00 | 8 | 1006.1 |
| 20260510012522 | 94 | 271 | 1.0 | 7.0 | 0.00 | 0.00 | 0.00 | 8 | 1006.1 |
| 20260510012201 | 95 | 55 | 2.0 | 7.0 | 0.00 | 0.00 | 0.00 | 9 | 1006.2 |
| 20260510011847 | 95 | 109 | 2.0 | 7.0 | 0.00 | 0.00 | 0.00 | 8 | 1006.1 |
| 20260510011522 | 95 | 248 | 2.0 | 7.0 | 0.00 | 0.00 | 0.00 | 8 | 1006.2 |
| 20260510011156 | 95 | 246 | 1.0 | 7.0 | 0.00 | 0.00 | 0.00 | 9 | 1006.1 |
| 20260510010841 | 95 | 254 | 1.0 | 6.0 | 0.00 | 0.00 | 0.00 | 9 | 1006.2 |
| 20260510010524 | 96 | 294 | 1.0 | 6.0 | 0.00 | 0.00 | 0.00 | 9 | 1006.1 |
| 20260510005558 | 96 | 323 | 3.0 | 8.0 | 0.00 | 0.00 | 0.00 | 8 | 1006.1 |
| 20260510004938 | 96 | 305 | 3.0 | 8.0 | 0.00 | 0.00 | 0.00 | 8 | 1006.1 |
| 20260510004616 | 96 | 335 | 3.0 | 8.0 | 0.00 | 0.00 | 0.00 | 8 | 1006.2 |
| 20260510004258 | 96 | 315 | 2.0 | 8.0 | 0.00 | 0.00 | 0.00 | 9 | 1006.2 |
| 20260510003940 | 96 | 329 | 1.0 | 7.0 | 0.00 | 0.00 | 0.00 | 9 | 1006.2 |
| 20260510003616 | 96 | 233 | 3.0 | 7.0 | 0.00 | 0.00 | 0.00 | 8 | 1006.2 |
| 20260510003257 | 97 | 239 | 3.0 | 7.0 | 0.00 | 0.00 | 0.00 | 9 | 1006.3 |
| 20260510002933 | 97 | 271 | 2.0 | 7.0 | 0.00 | 0.00 | 0.00 | 9 | 1006.2 |
| 20260510002619 | 97 | 276 | 1.0 | 5.0 | 0.00 | 0.00 | 0.00 | 10 | 1006.2 |
| 20260510002258 | 97 | 322 | 1.0 | 5.0 | 0.00 | 0.00 | 0.00 | 9 | 1006.2 |
| 20260510001941 | 97 | 279 | 2.0 | 6.0 | 0.00 | 0.00 | 0.00 | 8 | 1006.3 |
| 20260510001616 | 97 | 109 | 2.0 | 6.0 | 0.00 | 0.00 | 0.00 | 8 | 1006.3 |
| 20260510001258 | 98 | 96 | 2.0 | 6.0 | 0.00 | 0.00 | 0.00 | 8 | 1006.3 |
| 20260510000941 | 98 | 126 | 3.0 | 8.0 | 0.00 | 0.00 | 0.00 | 8 | 1006.3 |
| 20260510000616 | 98 | 5 | 3.0 | 8.0 | 0.00 | 0.00 | 0.00 | 9 | 1006.3 |
| 20260510000253 | 98 | 102 | 3.0 | 8.0 | 0.00 | 0.00 | 0.00 | 9 | 1006.3 |
| 20260509235928 | 99 | 93 | 3.0 | 11.0 | 0.00 | 0.00 | 0.00 | 8 | 1006.4 |
| 20260509235608 | 99 | 53 | 4.0 | 11.0 | 0.00 | 0.00 | 0.00 | 9 | 1006.4 |
| 20260509235246 | 99 | 121 | 5.0 | 11.0 | 0.00 | 0.00 | 0.00 | 8 | 1006.5 |
| 20260509234623 | 99 | 118 | 5.0 | 11.0 | 0.00 | 0.00 | 0.00 | 8 | 1006.5 |
| 20260509234001 | 99 | 121 | 2.0 | 8.0 | 0.00 | 0.00 | 0.00 | 8 | 1006.6 |
| 20260509233044 | 99 | 114 | 3.0 | 10.0 | 0.00 | 0.00 | 0.00 | 8 | 1006.6 |
| 20260509232726 | 100 | 43 | 3.0 | 10.0 | 0.00 | 0.00 | 0.00 | 8 | 1006.6 |
| 20260509232410 | 100 | 31 | 4.0 | 10.0 | 0.00 | 0.00 | 0.00 | 10 | 1006.6 |
| 20260509232045 | 99 | 93 | 5.0 | 10.0 | 0.00 | 0.00 | 0.00 | 9 | 1006.6 |
| 20260509231728 | 100 | 92 | 5.0 | 10.0 | 0.00 | 0.00 | 0.00 | 11 | 1006.6 |
| 20260509231411 | 100 | 52 | 4.0 | 10.0 | 0.00 | 0.00 | 0.00 | 10 | 1006.7 |
| 20260509231048 | 100 | 134 | 2.0 | 9.0 | 0.00 | 0.00 | 0.00 | 9 | 1006.7 |
| 20260509230723 | 99 | 74 | 1.0 | 4.0 | 0.00 | 0.00 | 0.00 | 11 | 1006.8 |
| 20260509230358 | 99 | 269 | 1.0 | 3.0 | 0.00 | 0.00 | 0.00 | 9 | 1006.9 |
| 20260509230035 | 99 | 278 | 1.0 | 3.0 | 0.00 | 0.00 | 0.00 | 9 | 1006.9 |
| 20260509225712 | 100 | 286 | 2.0 | 3.0 | 0.00 | 0.00 | 0.00 | 8 | 1007.0 |
| 20260509225352 | 100 | 30 | 2.0 | 7.0 | 0.00 | 0.00 | 0.00 | 12 | 1007.0 |
| 20260509225037 | 99 | 5 | 1.0 | 7.0 | 0.00 | 0.00 | 0.00 | 9 | 1007.0 |
| 20260509224717 | 99 | 101 | 1.0 | 7.0 | 0.00 | 0.00 | 0.00 | 10 | 1007.1 |
| 20260509224359 | 99 | 80 | 1.0 | 8.0 | 0.00 | 0.00 | 0.00 | 13 | 1007.1 |
| 20260509224040 | 99 | 30 | 2.0 | 8.0 | 0.00 | 0.00 | 0.00 | 10 | 1007.2 |
| 20260509223715 | 98 | 0 | 2.0 | 8.0 | 0.00 | 0.00 | 0.00 | 8 | 1007.2 |
| 20260509223351 | 99 | 160 | 2.0 | 8.0 | 0.00 | 0.00 | 0.00 | 9 | 1007.4 |
| 20260509223026 | 99 | 146 | 2.0 | 8.0 | 0.00 | 0.00 | 0.00 | 8 | 1007.4 |
| 20260509222400 | 99 | 298 | 2.0 | 8.0 | 0.00 | 0.00 | 0.00 | 9 | 1007.5 |
| 20260509222041 | 100 | 213 | 2.0 | 8.0 | 0.00 | 0.00 | 0.00 | 9 | 1007.6 |
| 20260509221725 | 100 | 90 | 3.0 | 8.0 | 0.00 | 0.00 | 0.00 | 10 | 1007.7 |
| 20260509221105 | 100 | 85 | 2.0 | 8.0 | 0.00 | 0.00 | 0.00 | 8 | 1007.8 |
| 20260509220441 | 99 | 186 | 1.0 | 10.0 | 0.00 | 0.00 | 0.00 | 8 | 1008.0 |
| 20260509220125 | 99 | 82 | 2.0 | 10.0 | 0.00 | 0.00 | 0.00 | 9 | 1008.1 |
| 20260509215803 | 99 | 105 | 4.0 | 10.0 | 0.00 | 0.00 | 0.00 | 11 | 1008.1 |
| 20260509215135 | 99 | 238 | 3.0 | 10.0 | 0.00 | 0.00 | 0.00 | 9 | 1008.3 |
| 20260509214816 | 99 | 189 | 1.0 | 10.0 | 0.00 | 0.00 | 0.00 | 9 | 1008.4 |
| 20260509214501 | 99 | 90 | 1.0 | 6.0 | 0.00 | 0.00 | 0.00 | 12 | 1008.4 |
| 20260509214146 | 101 | 0 | 1.0 | 7.0 | 0.00 | 0.00 | 0.00 | 8 | 1008.4 |
| 20260509212922 | 99 | 109 | 3.0 | 11.0 | 0.00 | 0.00 | 0.00 | 10 | 1008.6 |
| 20260509212306 | 99 | 96 | 3.0 | 11.0 | 0.00 | 0.00 | 0.00 | 9 | 1008.7 |
| 20260509211946 | 100 | 126 | 4.0 | 11.0 | 0.00 | 0.00 | 0.00 | 11 | 1008.8 |
| 20260509211629 | 100 | 61 | 4.0 | 11.0 | 0.00 | 0.00 | 0.00 | 10 | 1008.8 |
| 20260509211304 | 100 | 128 | 5.0 | 10.0 | 0.00 | 0.00 | 0.00 | 11 | 1008.9 |
| 20260509210650 | 100 | 83 | 4.0 | 9.0 | 0.00 | 0.00 | 0.00 | 11 | 1009.0 |
| 20260509205433 | 100 | 28 | 2.0 | 9.0 | 0.00 | 0.00 | 0.00 | 9 | 1009.2 |
| 20260509205116 | 100 | 350 | 1.0 | 9.0 | 0.00 | 0.00 | 0.00 | 9 | 1009.2 |
| 20260509204755 | 99 | 242 | 1.0 | 9.0 | 0.00 | 0.00 | 0.00 | 9 | 1009.3 |
| 20260509204132 | 98 | 216 | 3.0 | 9.0 | 0.00 | 0.00 | 0.00 | 9 | 1009.4 |
| 20260509203808 | 98 | 248 | 3.0 | 9.0 | 0.00 | 0.00 | 0.00 | 10 | 1009.4 |
| 20260509203442 | 98 | 219 | 2.0 | 8.0 | 0.00 | 0.00 | 0.00 | 9 | 1009.5 |
| 20260509203121 | 98 | 169 | 1.0 | 6.0 | 0.00 | 0.00 | 0.00 | 11 | 1009.5 |
| 20260509202756 | 98 | 127 | 2.0 | 6.0 | 0.00 | 0.00 | 0.00 | 10 | 1009.4 |
| 20260509202435 | 98 | 46 | 2.0 | 6.0 | 0.00 | 0.00 | 0.00 | 12 | 1009.4 |
| 20260509202111 | 98 | 11 | 2.0 | 8.0 | 0.00 | 0.00 | 0.00 | 10 | 1009.5 |
| 20260509201753 | 98 | 25 | 3.0 | 8.0 | 0.00 | 0.00 | 0.00 | 10 | 1009.6 |
| 20260509201431 | 97 | 58 | 2.0 | 8.0 | 0.00 | 0.00 | 0.00 | 10 | 1009.5 |
| 20260509201115 | 97 | 72 | 4.0 | 10.0 | 0.00 | 0.00 | 0.00 | 10 | 1009.6 |
| 20260509200755 | 97 | 252 | 3.0 | 10.0 | 0.00 | 0.00 | 0.00 | 10 | 1009.8 |
| 20260509195832 | 97 | 146 | 4.0 | 10.0 | 0.00 | 0.00 | 0.00 | 10 | 1009.8 |
| 20260509195516 | 98 | 122 | 3.0 | 10.0 | 0.00 | 0.00 | 0.00 | 14 | 1009.8 |
| 20260509195152 | 98 | 106 | 2.0 | 5.0 | 0.00 | 0.00 | 0.00 | 11 | 1009.8 |
| 20260509194827 | 97 | 95 | 1.0 | 10.0 | 0.00 | 0.00 | 0.00 | 13 | 1009.9 |
| 20260509194506 | 97 | 335 | 2.0 | 10.0 | 0.00 | 0.00 | 0.00 | 11 | 1009.9 |
| 20260509194151 | 97 | 126 | 3.0 | 10.0 | 0.00 | 0.00 | 0.00 | 10 | 1010.0 |
| 20260509193833 | 98 | 117 | 4.0 | 10.0 | 0.00 | 0.00 | 0.00 | 11 | 1009.9 |
| 20260509193509 | 98 | 121 | 4.0 | 10.0 | 0.00 | 0.00 | 0.00 | 12 | 1010.0 |
| 20260509193146 | 98 | 95 | 4.0 | 10.0 | 0.00 | 0.00 | 0.00 | 10 | 1010.0 |
| 20260509192826 | 98 | 98 | 4.0 | 10.0 | 0.00 | 0.00 | 0.00 | 11 | 1010.0 |
| 20260509192507 | 97 | 5 | 4.0 | 10.0 | 0.00 | 0.00 | 0.00 | 11 | 1010.0 |
| 20260509192148 | 97 | 82 | 4.0 | 10.0 | 0.00 | 0.00 | 0.00 | 16 | 1010.0 |
| 20260509191823 | 96 | 86 | 4.0 | 10.0 | 0.00 | 0.00 | 0.00 | 13 | 1010.2 |
| 20260509191503 | 96 | 182 | 5.0 | 10.0 | 0.00 | 0.00 | 0.00 | 10 | 1010.1 |
| 20260509191148 | 97 | 173 | 5.0 | 10.0 | 0.00 | 0.00 | 0.00 | 12 | 1010.2 |
| 20260509190826 | 97 | 114 | 5.0 | 10.0 | 0.00 | 0.00 | 0.00 | 10 | 1010.2 |
| 20260509190501 | 97 | 59 | 5.0 | 10.0 | 0.00 | 0.00 | 0.00 | 12 | 1010.3 |
| 20260509190138 | 97 | 71 | 4.0 | 10.0 | 0.00 | 0.00 | 0.00 | 15 | 1010.4 |
| 20260509185812 | 96 | 105 | 4.0 | 10.0 | 0.00 | 0.00 | 0.00 | 15 | 1010.4 |
| 20260509185454 | 97 | 36 | 5.0 | 10.0 | 0.00 | 0.00 | 0.00 | 12 | 1010.3 |
| 20260509185130 | 96 | 25 | 5.0 | 10.0 | 0.00 | 0.00 | 0.00 | 13 | 1010.3 |
| 20260509184806 | 96 | 122 | 6.0 | 11.0 | 0.00 | 0.00 | 0.00 | 14 | 1010.4 |
| 20260509184452 | 96 | 103 | 6.0 | 11.0 | 0.00 | 0.00 | 0.00 | 12 | 1010.4 |
| 20260509183828 | 97 | 159 | 5.0 | 19.0 | 0.00 | 0.00 | 0.00 | 10 | 1010.4 |
| 20260509183213 | 97 | 164 | 6.0 | 19.0 | 0.00 | 0.00 | 0.00 | 12 | 1010.4 |
| 20260509182854 | 97 | 36 | 7.0 | 19.0 | 0.00 | 0.00 | 0.00 | 11 | 1010.6 |
| 20260509182537 | 96 | 105 | 7.0 | 19.0 | 0.00 | 0.00 | 0.00 | 12 | 1010.5 |
| 20260509182215 | 95 | 146 | 5.0 | 19.0 | 0.00 | 0.00 | 0.00 | 10 | 1010.4 |
| 20260509181857 | 95 | 250 | 3.0 | 11.0 | 0.00 | 0.00 | 0.00 | 10 | 1010.5 |
| 20260509181539 | 94 | 355 | 2.0 | 11.0 | 0.00 | 0.00 | 0.00 | 12 | 1010.6 |
| 20260509180923 | 94 | 191 | 2.0 | 11.0 | 0.00 | 0.00 | 0.00 | 12 | 1010.7 |
| 20260509180559 | 94 | 251 | 1.0 | 11.0 | 0.00 | 0.00 | 0.00 | 11 | 1010.6 |
| 20260509180236 | 94 | 43 | 1.0 | 11.0 | 0.00 | 0.00 | 0.00 | 11 | 1010.7 |
| 20260509175920 | 94 | 186 | 1.0 | 6.0 | 0.00 | 0.00 | 0.00 | 11 | 1010.7 |
| 20260509175306 | 93 | 90 | 1.0 | 5.0 | 0.00 | 0.00 | 0.00 | 11 | 1010.8 |
| 20260509174640 | 93 | 134 | 2.0 | 6.0 | 0.00 | 0.00 | 0.00 | 13 | 1010.8 |
| 20260509174316 | 92 | 192 | 2.0 | 6.0 | 0.00 | 0.00 | 0.00 | 11 | 1010.8 |
| 20260509173954 | 92 | 259 | 2.0 | 6.0 | 0.00 | 0.00 | 0.00 | 11 | 1010.9 |
| 20260509173634 | 93 | 172 | 2.0 | 6.0 | 0.00 | 0.00 | 0.00 | 11 | 1010.8 |
| 20260509173317 | 93 | 148 | 1.0 | 6.0 | 0.00 | 0.00 | 0.00 | 13 | 1011.0 |
| 20260509172956 | 93 | 28 | 1.0 | 4.0 | 0.00 | 0.00 | 0.00 | 10 | 1010.9 |
| 20260509172639 | 93 | 37 | 1.0 | 4.0 | 0.00 | 0.00 | 0.00 | 13 | 1010.9 |
| 20260509172319 | 93 | 20 | 0.0 | 4.0 | 0.00 | 0.00 | 0.00 | 13 | 1011.0 |
| 20260509171955 | 93 | 30 | 1.0 | 3.0 | 0.00 | 0.00 | 0.00 | 11 | 1010.9 |
| 20260509171633 | 93 | 294 | 1.0 | 6.0 | 0.00 | 0.00 | 0.00 | 11 | 1010.9 |
| 20260509171316 | 92 | 24 | 1.0 | 6.0 | 0.00 | 0.00 | 0.00 | 12 | 1010.9 |
| 20260509170956 | 92 | 18 | 1.0 | 6.0 | 0.00 | 0.00 | 0.00 | 12 | 1010.9 |
| 20260509170329 | 91 | 155 | 1.0 | 7.0 | 0.00 | 0.00 | 0.00 | 12 | 1010.9 |
| 20260509170005 | 91 | 128 | 1.0 | 7.0 | 0.00 | 0.00 | 0.00 | 15 | 1010.9 |
| 20260509165648 | 92 | 123 | 2.0 | 7.0 | 0.00 | 0.00 | 0.00 | 13 | 1010.9 |
| 20260509165334 | 92 | 339 | 3.0 | 7.0 | 0.00 | 0.00 | 0.00 | 15 | 1011.0 |
| 20260509165018 | 92 | 350 | 3.0 | 7.0 | 0.00 | 0.00 | 0.00 | 13 | 1011.0 |
| 20260509164703 | 91 | 35 | 2.0 | 7.0 | 0.00 | 0.00 | 0.00 | 13 | 1010.9 |
| 20260509164337 | 91 | 44 | 2.0 | 6.0 | 0.00 | 0.00 | 0.00 | 19 | 1010.9 |
| 20260509164019 | 91 | 14 | 2.0 | 6.0 | 0.00 | 0.00 | 0.00 | 15 | 1010.9 |
| 20260509163703 | 91 | 24 | 2.0 | 6.0 | 0.00 | 0.00 | 0.00 | 12 | 1010.9 |
| 20260509163341 | 90 | 342 | 1.0 | 6.0 | 0.00 | 0.00 | 0.00 | 15 | 1010.9 |
| 20260509163022 | 90 | 0 | 1.0 | 5.0 | 0.00 | 0.00 | 0.00 | 15 | 1010.9 |
| 20260509162705 | 89 | 57 | 1.0 | 5.0 | 0.00 | 0.00 | 0.00 | 14 | 1011.0 |
| 20260509162044 | 88 | 35 | 2.0 | 7.0 | 0.00 | 0.00 | 0.00 | 15 | 1011.0 |
| 20260509161421 | 88 | 30 | 2.0 | 8.0 | 0.00 | 0.00 | 0.00 | 15 | 1010.9 |
| 20260509161106 | 88 | 27 | 3.0 | 8.0 | 0.00 | 0.00 | 0.00 | 14 | 1011.0 |
| 20260509160440 | 87 | 40 | 3.0 | 8.0 | 0.00 | 0.00 | 0.00 | 15 | 1010.9 |
| 20260509155817 | 86 | 24 | 2.0 | 8.0 | 0.00 | 0.00 | 0.00 | 16 | 1011.0 |
| 20260509155500 | 86 | 43 | 2.0 | 5.0 | 0.00 | 0.00 | 0.00 | 18 | 1010.9 |
| 20260509154541 | 85 | 38 | 2.0 | 6.0 | 0.00 | 0.00 | 0.00 | 16 | 1011.0 |
| 20260509154220 | 85 | 40 | 2.0 | 6.0 | 0.00 | 0.00 | 0.00 | 17 | 1011.0 |
| 20260509153905 | 84 | 18 | 2.0 | 6.0 | 0.00 | 0.00 | 0.00 | 17 | 1011.0 |
| 20260509153544 | 84 | 23 | 2.0 | 6.0 | 0.00 | 0.00 | 0.00 | 16 | 1011.0 |
| 20260509153220 | 84 | 38 | 2.0 | 5.0 | 0.00 | 0.00 | 0.00 | 18 | 1010.9 |
| 20260509152859 | 83 | 41 | 2.0 | 4.0 | 0.00 | 0.00 | 0.00 | 18 | 1011.0 |
| 20260509152537 | 83 | 19 | 1.0 | 4.0 | 0.00 | 0.00 | 0.00 | 17 | 1010.9 |
| 20260509152211 | 82 | 5 | 1.0 | 3.0 | 0.00 | 0.00 | 0.00 | 19 | 1010.9 |
| 20260509151848 | 82 | 350 | 0.0 | 3.0 | 0.00 | 0.00 | 0.00 | 18 | 1010.9 |
| 20260509151533 | 81 | 342 | 0.0 | 2.0 | 0.00 | 0.00 | 0.00 | 18 | 1010.9 |
| 20260509151218 | 81 | 344 | 0.0 | 2.0 | 0.00 | 0.00 | 0.00 | 21 | 1010.9 |
| 20260509150855 | 80 | 355 | 0.0 | 3.0 | 0.00 | 0.00 | 0.00 | 20 | 1011.0 |
| 20260509150531 | 79 | 306 | 0.0 | 3.0 | 0.00 | 0.00 | 0.00 | 21 | 1010.9 |
| 20260509150206 | 79 | 305 | 1.0 | 3.0 | 0.00 | 0.00 | 0.00 | 20 | 1010.9 |
| 20260509145843 | 78 | 298 | 1.0 | 6.0 | 0.00 | 0.00 | 0.00 | 22 | 1010.9 |
| 20260509145215 | 77 | 305 | 1.0 | 6.0 | 0.00 | 0.00 | 0.00 | 23 | 1010.9 |
| 20260509144854 | 77 | 275 | 1.0 | 6.0 | 0.00 | 0.00 | 0.00 | 24 | 1010.8 |
| 20260509144534 | 76 | 274 | 2.0 | 6.0 | 0.00 | 0.00 | 0.00 | 26 | 1010.8 |
| 20260509144216 | 75 | 288 | 2.0 | 6.0 | 0.00 | 0.00 | 0.00 | 27 | 1010.9 |
| 20260509143856 | 74 | 275 | 2.0 | 5.0 | 0.00 | 0.00 | 0.00 | 27 | 1010.9 |
| 20260509143233 | 72 | 277 | 1.0 | 3.0 | 0.00 | 0.00 | 0.00 | 30 | 1010.9 |
| 20260509142606 | 70 | 281 | 0.0 | 2.0 | 0.00 | 0.00 | 0.00 | 30 | 1010.8 |
| 20260509142250 | 70 | 282 | 0.0 | 1.0 | 0.00 | 0.00 | 0.00 | 29 | 1010.8 |
| 20260509141631 | 69 | 215 | 0.0 | 0.0 | 0.00 | 0.00 | 0.00 | 32 | 1010.8 |
| 20260509141309 | 69 | 215 | 0.0 | 0.0 | 0.00 | 0.00 | 0.00 | 32 | 1010.7 |
| 20260509140950 | 69 | 215 | 0.0 | 0.0 | 0.00 | 0.00 | 0.00 | 32 | 1010.7 |
| 20260509140626 | 69 | 215 | 0.0 | 0.0 | 0.00 | 0.00 | 0.00 | 33 | 1010.6 |
| 20260509140007 | 69 | 0 | 0.0 | 1.0 | 0.00 | 0.00 | 0.00 | 35 | 1010.6 |
| 20260509135642 | 69 | 0 | 0.0 | 0.0 | 0.00 | 0.00 | 0.00 | 36 | 1010.5 |
| 20260509135319 | 68 | 0 | 0.0 | 0.0 | 0.00 | 0.00 | 0.00 | 35 | 1010.5 |
| 20260509135003 | 68 | 215 | 0.0 | 1.0 | 0.00 | 0.00 | 0.00 | 34 | 1010.5 |
| 20260509134644 | 68 | 215 | 0.0 | 0.0 | 0.00 | 0.00 | 0.00 | 35 | 1010.4 |
| 20260509134323 | 68 | 215 | 0.0 | 0.0 | 0.00 | 0.00 | 0.00 | 35 | 1010.3 |
| 20260509133959 | 68 | 215 | 1.0 | 2.0 | 0.00 | 0.00 | 0.00 | 33 | 1010.3 |
| 20260509133643 | 68 | 0 | 1.0 | 2.0 | 0.00 | 0.00 | 0.00 | 33 | 1010.3 |
| 20260509133319 | 68 | 0 | 0.0 | 3.0 | 0.00 | 0.00 | 0.00 | 33 | 1010.3 |
| 20260509132659 | 68 | 0 | 0.0 | 3.0 | 0.00 | 0.00 | 0.00 | 33 | 1010.2 |
| 20260509132340 | 68 | 0 | 0.0 | 2.0 | 0.00 | 0.00 | 0.00 | 33 | 1010.2 |
| 20260509132019 | 68 | 0 | 0.0 | 2.0 | 0.00 | 0.00 | 0.00 | 32 | 1010.2 |
| 20260509131658 | 68 | 0 | 0.0 | 2.0 | 0.00 | 0.00 | 0.00 | 32 | 1010.1 |
| 20260509131342 | 68 | 0 | 0.0 | 1.0 | 0.00 | 0.00 | 0.00 | 30 | 1010.1 |
| 20260509131022 | 68 | 0 | 0.0 | 0.0 | 0.00 | 0.00 | 0.00 | 30 | 1009.9 |
| 20260509130701 | 68 | 0 | 0.0 | 3.0 | 0.00 | 0.00 | 0.00 | 30 | 1009.8 |
| 20260509130336 | 68 | 0 | 0.0 | 0.0 | 0.00 | 0.00 | 0.00 | 30 | 1009.7 |
| 20260509130012 | 69 | 0 | 0.0 | 2.0 | 0.00 | 0.00 | 0.00 | 29 | 1009.6 |
| 20260509125648 | 69 | 0 | 0.0 | 2.0 | 0.00 | 0.00 | 0.00 | 29 | 1009.7 |
| 20260509125326 | 69 | 0 | 0.0 | 1.0 | 0.00 | 0.00 | 0.00 | 30 | 1009.5 |
| 20260509125002 | 69 | 0 | 0.0 | 0.0 | 0.00 | 0.00 | 0.00 | 29 | 1009.4 |
| 20260509124640 | 69 | 0 | 0.0 | 1.0 | 0.00 | 0.00 | 0.00 | 29 | 1009.5 |
| 20260509124319 | 69 | 0 | 0.0 | 3.0 | 0.00 | 0.00 | 0.00 | 29 | 1009.4 |
| 20260509124002 | 69 | 0 | 0.0 | 3.0 | 0.00 | 0.00 | 0.00 | 29 | 1009.4 |
| 20260509123644 | 69 | 0 | 0.0 | 3.0 | 0.00 | 0.00 | 0.00 | 29 | 1009.4 |
| 20260509123323 | 69 | 0 | 0.0 | 3.0 | 0.00 | 0.00 | 0.00 | 29 | 1009.4 |
| 20260509123006 | 69 | 0 | 0.0 | 3.0 | 0.00 | 0.00 | 0.00 | 29 | 1009.4 |
| 20260509122649 | 69 | 0 | 0.0 | 1.0 | 0.00 | 0.00 | 0.00 | 29 | 1009.3 |
| 20260509122334 | 69 | 0 | 0.0 | 4.0 | 0.00 | 0.00 | 0.00 | 29 | 1009.3 |
| 20260509121108 | 70 | 0 | 1.0 | 4.0 | 0.00 | 0.00 | 0.00 | 28 | 1009.2 |
| 20260509120743 | 70 | 0 | 1.0 | 4.0 | 0.00 | 0.00 | 0.00 | 28 | 1009.2 |
| 20260509120421 | 70 | 0 | 0.0 | 4.0 | 0.00 | 0.00 | 0.00 | 28 | 1009.2 |
| 20260509120104 | 70 | 0 | 1.0 | 4.0 | 0.00 | 0.00 | 0.00 | 28 | 1009.2 |
| 20260509115448 | 70 | 0 | 1.0 | 4.0 | 0.00 | 0.00 | 0.00 | 28 | 1009.1 |
| 20260509115127 | 70 | 0 | 1.0 | 4.0 | 0.00 | 0.00 | 0.00 | 28 | 1009.1 |
| 20260509114500 | 70 | 0 | 1.0 | 4.0 | 0.00 | 0.00 | 0.00 | 28 | 1009.1 |
| 20260509114143 | 70 | 0 | 1.0 | 4.0 | 0.00 | 0.00 | 0.00 | 28 | 1009.1 |
| 20260509113822 | 70 | 0 | 2.0 | 4.0 | 0.00 | 0.00 | 0.00 | 30 | 1009.1 |
| 20260509113457 | 70 | 0 | 2.0 | 4.0 | 0.00 | 0.00 | 0.00 | 27 | 1009.1 |
| 20260509113140 | 70 | 0 | 2.0 | 4.0 | 0.00 | 0.00 | 0.00 | 27 | 1009.1 |
| 20260509112817 | 70 | 0 | 1.0 | 3.0 | 0.00 | 0.00 | 0.00 | 27 | 1008.9 |
| 20260509112159 | 71 | 0 | 1.0 | 4.0 | 0.00 | 0.00 | 0.00 | 27 | 1009.0 |
| 20260509111839 | 71 | 0 | 1.0 | 4.0 | 0.00 | 0.00 | 0.00 | 26 | 1008.9 |
| 20260509111522 | 71 | 0 | 1.0 | 4.0 | 0.00 | 0.00 | 0.00 | 26 | 1009.0 |
| 20260509111202 | 71 | 0 | 1.0 | 4.0 | 0.00 | 0.00 | 0.00 | 26 | 1008.9 |
| 20260509110842 | 71 | 0 | 1.0 | 4.0 | 0.00 | 0.00 | 0.00 | 25 | 1008.9 |
| 20260509110526 | 72 | 0 | 1.0 | 4.0 | 0.00 | 0.00 | 0.00 | 25 | 1009.0 |
| 20260509110204 | 72 | 0 | 1.0 | 3.0 | 0.00 | 0.00 | 0.00 | 24 | 1008.9 |
| 20260509105844 | 72 | 0 | 2.0 | 3.0 | 0.00 | 0.00 | 0.00 | 24 | 1009.0 |
| 20260509105522 | 72 | 0 | 2.0 | 3.0 | 0.00 | 0.00 | 0.00 | 25 | 1009.0 |
| 20260509105205 | 72 | 0 | 1.0 | 3.0 | 0.00 | 0.00 | 0.00 | 25 | 1008.9 |
| 20260509104539 | 73 | 0 | 1.0 | 3.0 | 0.00 | 0.00 | 0.00 | 25 | 1009.0 |
| 20260509104219 | 73 | 0 | 0.0 | 2.0 | 0.00 | 0.00 | 0.00 | 24 | 1008.9 |
| 20260509103858 | 73 | 0 | 1.0 | 4.0 | 0.00 | 0.00 | 0.00 | 25 | 1009.0 |
| 20260509103542 | 73 | 0 | 1.0 | 4.0 | 0.00 | 0.00 | 0.00 | 24 | 1008.9 |
| 20260509103217 | 73 | 0 | 2.0 | 4.0 | 0.00 | 0.00 | 0.00 | 24 | 1008.9 |
| 20260509102858 | 73 | 0 | 1.0 | 4.0 | 0.00 | 0.00 | 0.00 | 24 | 1008.8 |
| 20260509102240 | 74 | 0 | 0.0 | 4.0 | 0.00 | 0.00 | 0.00 | 24 | 1008.9 |
| 20260509101313 | 74 | 0 | 0.0 | 2.0 | 0.00 | 0.00 | 0.00 | 23 | 1008.9 |
| 20260509100957 | 75 | 0 | 1.0 | 2.0 | 0.00 | 0.00 | 0.00 | 23 | 1008.9 |
| 20260509100634 | 75 | 0 | 1.0 | 2.0 | 0.00 | 0.00 | 0.00 | 23 | 1008.9 |
| 20260509100309 | 75 | 0 | 1.0 | 2.0 | 0.00 | 0.00 | 0.00 | 22 | 1009.0 |
| 20260509095944 | 75 | 0 | 1.0 | 4.0 | 0.00 | 0.00 | 0.00 | 23 | 1008.9 |
| 20260509095624 | 75 | 0 | 1.0 | 4.0 | 0.00 | 0.00 | 0.00 | 23 | 1008.8 |
| 20260509095309 | 75 | 0 | 1.0 | 4.0 | 0.00 | 0.00 | 0.00 | 23 | 1008.9 |
| 20260509094946 | 75 | 0 | 1.0 | 4.0 | 0.00 | 0.00 | 0.00 | 23 | 1008.8 |
| 20260509094624 | 75 | 0 | 1.0 | 4.0 | 0.00 | 0.00 | 0.00 | 22 | 1008.9 |
| 20260509094301 | 75 | 0 | 1.0 | 4.0 | 0.00 | 0.00 | 0.00 | 22 | 1008.8 |
| 20260509093938 | 75 | 0 | 1.0 | 3.0 | 0.00 | 0.00 | 0.00 | 22 | 1008.9 |
| 20260509093616 | 75 | 0 | 1.0 | 7.0 | 0.00 | 0.00 | 0.00 | 22 | 1008.8 |
| 20260509093251 | 75 | 0 | 2.0 | 7.0 | 0.00 | 0.00 | 0.00 | 22 | 1008.8 |
| 20260509092935 | 75 | 0 | 2.0 | 7.0 | 0.00 | 0.00 | 0.00 | 22 | 1008.7 |
| 20260509092616 | 75 | 0 | 2.0 | 7.0 | 0.00 | 0.00 | 0.00 | 22 | 1008.6 |
| 20260509091952 | 75 | 0 | 2.0 | 7.0 | 0.00 | 0.00 | 0.00 | 22 | 1008.6 |
| 20260509091328 | 75 | 0 | 1.0 | 7.0 | 0.00 | 0.00 | 0.00 | 21 | 1008.8 |
| 20260509091008 | 76 | 0 | 1.0 | 7.0 | 0.00 | 0.00 | 0.00 | 22 | 1008.7 |
| 20260509090651 | 76 | 0 | 1.0 | 3.0 | 0.00 | 0.00 | 0.00 | 22 | 1008.7 |
| 20260509090335 | 76 | 0 | 1.0 | 3.0 | 0.00 | 0.00 | 0.00 | 21 | 1008.7 |
| 20260509090016 | 76 | 0 | 0.0 | 3.0 | 0.00 | 0.00 | 0.00 | 21 | 1008.6 |
| 20260509085655 | 76 | 0 | 0.0 | 2.0 | 0.00 | 0.00 | 0.00 | 21 | 1008.8 |
| 20260509085330 | 76 | 0 | 0.0 | 0.0 | 0.00 | 0.00 | 0.00 | 20 | 1008.7 |
| 20260509085016 | 76 | 0 | 1.0 | 4.0 | 0.00 | 0.00 | 0.00 | 20 | 1008.8 |
| 20260509084058 | 77 | 0 | 1.0 | 3.0 | 0.00 | 0.00 | 0.00 | 20 | 1008.7 |
| 20260509083733 | 77 | 0 | 1.0 | 3.0 | 0.00 | 0.00 | 0.00 | 20 | 1008.7 |
| 20260509083411 | 77 | 0 | 1.0 | 3.0 | 0.00 | 0.00 | 0.00 | 20 | 1008.7 |
| 20260509083047 | 78 | 0 | 1.0 | 2.0 | 0.00 | 0.00 | 0.00 | 20 | 1008.7 |
| 20260509082725 | 78 | 0 | 0.0 | 2.0 | 0.00 | 0.00 | 0.00 | 20 | 1008.7 |
| 20260509082408 | 78 | 0 | 0.0 | 2.0 | 0.00 | 0.00 | 0.00 | 19 | 1008.7 |
| 20260509082049 | 78 | 0 | 1.0 | 2.0 | 0.00 | 0.00 | 0.00 | 19 | 1008.8 |
| 20260509081427 | 78 | 0 | 0.0 | 2.0 | 0.00 | 0.00 | 0.00 | 20 | 1008.7 |
| 20260509081108 | 79 | 0 | 0.0 | 1.0 | 0.00 | 0.00 | 0.00 | 19 | 1008.7 |
| 20260509080440 | 79 | 0 | 0.0 | 3.0 | 0.00 | 0.00 | 0.00 | 20 | 1008.7 |
| 20260509080116 | 79 | 0 | 1.0 | 3.0 | 0.00 | 0.00 | 0.00 | 19 | 1008.7 |
| 20260509075755 | 79 | 0 | 1.0 | 4.0 | 0.00 | 0.00 | 0.00 | 19 | 1008.7 |
| 20260509075436 | 79 | 0 | 1.0 | 4.0 | 0.00 | 0.00 | 0.00 | 18 | 1008.8 |
| 20260509075115 | 79 | 0 | 2.0 | 4.0 | 0.00 | 0.00 | 0.00 | 19 | 1008.8 |
| 20260509074750 | 79 | 0 | 1.0 | 4.0 | 0.00 | 0.00 | 0.00 | 18 | 1008.8 |
| 20260509074432 | 79 | 0 | 1.0 | 4.0 | 0.00 | 0.00 | 0.00 | 18 | 1008.9 |
| 20260509074107 | 80 | 0 | 0.0 | 4.0 | 0.00 | 0.00 | 0.00 | 18 | 1008.8 |
| 20260509073750 | 80 | 0 | 0.0 | 1.0 | 0.00 | 0.00 | 0.00 | 18 | 1008.9 |
| 20260509073434 | 80 | 0 | 0.0 | 4.0 | 0.00 | 0.00 | 0.00 | 17 | 1008.9 |
| 20260509073118 | 81 | 0 | 1.0 | 4.0 | 0.00 | 0.00 | 0.00 | 17 | 1008.9 |
| 20260509072756 | 81 | 0 | 1.0 | 4.0 | 0.00 | 0.00 | 0.00 | 17 | 1008.9 |
| 20260509072431 | 81 | 0 | 2.0 | 4.0 | 0.00 | 0.00 | 0.00 | 17 | 1008.8 |
| 20260509072117 | 81 | 0 | 2.0 | 4.0 | 0.00 | 0.00 | 0.00 | 17 | 1008.8 |
| 20260509071800 | 82 | 0 | 2.0 | 4.0 | 0.00 | 0.00 | 0.00 | 17 | 1008.8 |
| 20260509071143 | 82 | 0 | 1.0 | 3.0 | 0.00 | 0.00 | 0.00 | 17 | 1008.8 |
| 20260509070827 | 82 | 0 | 1.0 | 7.0 | 0.00 | 0.00 | 0.00 | 16 | 1008.8 |
| 20260509070509 | 83 | 0 | 1.0 | 7.0 | 0.00 | 0.00 | 0.00 | 17 | 1008.7 |
| 20260509070153 | 83 | 0 | 1.0 | 7.0 | 0.00 | 0.00 | 0.00 | 16 | 1008.7 |
| 20260509065832 | 83 | 0 | 2.0 | 7.0 | 0.00 | 0.00 | 0.00 | 16 | 1008.8 |
| 20260509065509 | 83 | 0 | 2.0 | 7.0 | 0.00 | 0.00 | 0.00 | 16 | 1008.6 |
| 20260509065154 | 83 | 0 | 2.0 | 7.0 | 0.00 | 0.00 | 0.00 | 16 | 1008.6 |
| 20260509064837 | 83 | 0 | 2.0 | 4.0 | 0.00 | 0.00 | 0.00 | 16 | 1008.6 |
| 20260509064212 | 83 | 0 | 3.0 | 7.0 | 0.00 | 0.00 | 0.00 | 15 | 1008.5 |
| 20260509063849 | 84 | 0 | 3.0 | 7.0 | 0.00 | 0.00 | 0.00 | 16 | 1008.5 |
| 20260509063525 | 84 | 0 | 3.0 | 10.0 | 0.00 | 0.00 | 0.00 | 16 | 1008.6 |
| 20260509063210 | 84 | 0 | 3.0 | 10.0 | 0.00 | 0.00 | 0.00 | 16 | 1008.5 |
| 20260509062846 | 84 | 0 | 4.0 | 10.0 | 0.00 | 0.00 | 0.00 | 15 | 1008.5 |
| 20260509062230 | 84 | 0 | 4.0 | 10.0 | 0.00 | 0.00 | 0.00 | 16 | 1008.5 |
| 20260509061904 | 84 | 0 | 4.0 | 10.0 | 0.00 | 0.00 | 0.00 | 15 | 1008.4 |
| 20260509061546 | 84 | 0 | 4.0 | 10.0 | 0.00 | 0.00 | 0.00 | 15 | 1008.4 |
| 20260509061225 | 84 | 0 | 4.0 | 10.0 | 0.00 | 0.00 | 0.00 | 16 | 1008.4 |
| 20260509060904 | 84 | 0 | 5.0 | 10.0 | 0.00 | 0.00 | 0.00 | 15 | 1008.6 |
| 20260509060547 | 84 | 0 | 5.0 | 10.0 | 0.00 | 0.00 | 0.00 | 16 | 1008.5 |
| 20260509060224 | 84 | 0 | 5.0 | 10.0 | 0.00 | 0.00 | 0.00 | 15 | 1008.5 |
| 20260509055604 | 84 | 0 | 4.0 | 11.0 | 0.00 | 0.00 | 0.00 | 15 | 1008.5 |
| 20260509054936 | 84 | 0 | 4.0 | 11.0 | 0.00 | 0.00 | 0.00 | 16 | 1008.4 |
| 20260509054615 | 84 | 0 | 5.0 | 11.0 | 0.00 | 0.00 | 0.00 | 15 | 1008.5 |
| 20260509054251 | 84 | 0 | 5.0 | 11.0 | 0.00 | 0.00 | 0.00 | 16 | 1008.5 |
| 20260509053935 | 84 | 0 | 5.0 | 11.0 | 0.00 | 0.00 | 0.00 | 15 | 1008.5 |
| 20260509053619 | 84 | 0 | 4.0 | 11.0 | 0.00 | 0.00 | 0.00 | 16 | 1008.5 |
| 20260509053257 | 84 | 0 | 4.0 | 11.0 | 0.00 | 0.00 | 0.00 | 15 | 1008.5 |
| 20260509052933 | 84 | 0 | 4.0 | 8.0 | 0.00 | 0.00 | 0.00 | 16 | 1008.5 |
| 20260509052618 | 85 | 0 | 3.0 | 8.0 | 0.00 | 0.00 | 0.00 | 16 | 1008.5 |
| 20260509052300 | 85 | 0 | 3.0 | 8.0 | 0.00 | 0.00 | 0.00 | 16 | 1008.5 |
| 20260509051936 | 85 | 0 | 3.0 | 8.0 | 0.00 | 0.00 | 0.00 | 15 | 1008.5 |
| 20260509051611 | 86 | 0 | 3.0 | 8.0 | 0.00 | 0.00 | 0.00 | 15 | 1008.5 |
| 20260509051251 | 86 | 0 | 3.0 | 8.0 | 0.00 | 0.00 | 0.00 | 15 | 1008.5 |
| 20260509050928 | 86 | 0 | 3.0 | 8.0 | 0.00 | 0.00 | 0.00 | 15 | 1008.4 |
| 20260509050612 | 86 | 0 | 4.0 | 8.0 | 0.00 | 0.00 | 0.00 | 15 | 1008.4 |
| 20260509050249 | 86 | 0 | 4.0 | 11.0 | 0.00 | 0.00 | 0.00 | 15 | 1008.4 |
| 20260509045623 | 86 | 0 | 5.0 | 11.0 | 0.00 | 0.00 | 0.00 | 14 | 1008.4 |
| 20260509045308 | 86 | 0 | 5.0 | 11.0 | 0.00 | 0.00 | 0.00 | 14 | 1008.4 |
| 20260509044642 | 87 | 0 | 5.0 | 11.0 | 0.00 | 0.00 | 0.00 | 14 | 1008.3 |
| 20260509044324 | 87 | 0 | 4.0 | 11.0 | 0.00 | 0.00 | 0.00 | 14 | 1008.4 |
| 20260509044004 | 87 | 0 | 4.0 | 11.0 | 0.00 | 0.00 | 0.00 | 14 | 1008.3 |
| 20260509043648 | 87 | 0 | 4.0 | 11.0 | 0.00 | 0.00 | 0.00 | 15 | 1008.4 |
| 20260509043325 | 87 | 0 | 5.0 | 11.0 | 0.00 | 0.00 | 0.00 | 14 | 1008.3 |
| 20260509043002 | 87 | 0 | 5.0 | 10.0 | 0.00 | 0.00 | 0.00 | 14 | 1008.3 |
| 20260509042642 | 88 | 0 | 5.0 | 10.0 | 0.00 | 0.00 | 0.00 | 14 | 1008.3 |
| 20260509042322 | 88 | 0 | 5.0 | 12.0 | 0.00 | 0.00 | 0.00 | 14 | 1008.2 |
| 20260509042006 | 88 | 0 | 5.0 | 12.0 | 0.00 | 0.00 | 0.00 | 13 | 1008.2 |
| 20260509041647 | 88 | 0 | 5.0 | 12.0 | 0.00 | 0.00 | 0.00 | 13 | 1008.2 |
| 20260509041331 | 88 | 0 | 6.0 | 12.0 | 0.00 | 0.00 | 0.00 | 14 | 1008.2 |